Vorticity
5 5 5 5 5 6 6 6 6 7 7 7 6 6 6 6 6 6 7 7 7 7 7 7 7 6 5 4 4 4 4 4 5 6 7 8 9 11 13 14 15 15 14 12 10 9 9 10 11 11 12 12 12 12 13 14 15 15 14 12 9 8 7 6 5 6 7 9 9
5 6 6 6 6 7 7 7 7 8 8 8 7 7 6 7 7 7 7 8 8 8 7 7 6 5 4 3 4 4 5 6 7 8 10 11 12 14 15 16 15 13 11 9 8 8 8 10 11 12 13 13 14 13 13 14 14 14 14 13 11 10 8 7 7 9 11 13 12
8 8 8 9 9 9 9 9 9 9 8 8 8 7 7 7 8 8 8 9 8 7 6 5 4 3 3 4 5 7 9 10 11 12 13 14 15 15 15 14 11 9 7 6 7 8 9 11 13 14 15 15 16 15 14 13 14 14 14 13 13 12 12 11 13 15 17 16 14
11 11 11 11 11 11 11 10 10 9 9 8 8 8 8 9 9 9 9 8 7 6 4 3 2 3 5 7 9 11 13 14 15 16 16 16 16 15 13 10 7 5 4 5 7 9 11 14 16 18 19 19 19 17 16 15 16 17 17 16 15 16 17 19 21 21 19 16 14
14 14 13 13 13 12 12 11 10 10 9 9 9 9 9 9 9 9 8 6 5 3 2 2 3 6 9 12 14 15 15 16 17 17 17 17 15 13 9 6 4 3 3 5 7 10 13 16 19 21 22 23 21 20 19 18 22 24 25 24 23 23 24 26 25 21 17 14 13
14 14 13 13 13 12 11 11 10 9 9 8 9 9 9 9 9 7 5 3 2 1 2 4 7 10 13 15 16 16 16 16 16 16 16 15 13 10 7 4 3 3 4 5 8 11 13 17 21 24 26 26 24 21 19 19 25 30 33 32 29 29 28 27 22 19 17 16 14
12 12 12 12 11 11 10 9 9 8 8 8 9 9 9 8 7 4 2 1 1 2 5 8 12 15 16 17 16 15 15 14 14 13 13 12 10 8 6 4 3 3 4 6 9 12 14 17 21 25 28 30 27 23 17 13 15 20 25 26 27 26 25 22 20 20 20 19 16
10 10 10 9 9 9 8 8 7 7 8 8 9 9 8 6 3 1 0 1 3 7 11 15 18 19 19 17 16 14 13 12 11 11 11 10 8 7 6 4 4 4 5 8 11 13 14 17 21 26 31 34 33 30 24 16 9 8 10 15 18 19 18 17 18 19 20 19 16
9 9 8 8 7 7 7 7 7 8 8 9 9 8 6 3 1 0 1 4 9 15 20 23 23 21 19 16 14 13 11 10 10 9 9 8 8 7 6 5 5 5 7 9 12 13 14 16 21 27 33 37 38 38 37 33 21 9 2 5 12 14 13 12 13 13 14 14 12
7 7 7 7 7 7 7 7 8 9 10 10 9 6 3 -0 -0 1 5 11 18 24 27 27 24 20 16 13 12 11 10 9 9 8 8 8 8 7 7 6 6 7 8 10 12 13 14 15 20 27 33 37 39 40 40 40 30 16 4 2 8 10 10 8 6 6 7 8 9
6 6 6 7 7 7 7 8 9 10 11 10 7 3 0 -1 1 6 12 20 26 28 28 25 20 15 12 11 10 9 8 8 8 8 8 8 8 8 8 8 8 9 10 11 12 13 14 15 20 25 30 34 34 34 34 33 27 18 10 6 8 9 8 6 2 1 3 7 7
7 7 7 7 7 8 8 9 11 11 11 8 4 1 -0 1 6 12 20 26 27 26 22 17 13 11 9 9 9 9 8 8 7 8 8 9 9 10 10 10 10 10 11 11 12 13 13 14 19 23 27 28 26 24 23 23 21 19 16 13 12 11 8 4 1 2 5 8 7
9 9 9 9 9 9 10 11 12 12 9 5 1 -1 1 5 11 18 23 25 22 19 14 11 9 8 8 9 9 9 8 8 8 9 9 10 11 11 11 11 10 11 11 11 12 13 14 15 19 22 23 22 19 16 15 16 17 17 17 16 13 10 7 5 6 7 8 6 6
11 11 11 11 11 11 12 13 13 11 7 1 -1 -0 3 9 16 20 22 21 17 13 9 7 7 8 9 9 9 9 9 9 9 10 11 11 11 11 11 11 11 11 11 12 13 14 15 16 18 21 22 20 16 13 11 11 12 12 11 10 9 8 8 9 10 9 7 5 8
13 13 13 13 13 14 14 15 13 9 4 -1 -1 2 7 13 18 20 20 16 12 9 8 7 8 9 9 9 9 9 9 10 10 11 12 12 12 12 11 11 11 11 11 12 14 15 16 17 18 20 20 19 15 12 9 6 5 4 4 5 7 8 10 11 9 7 5 4 8
13 14 14 15 15 15 16 15 11 6 1 -2 0 4 10 16 19 19 17 13 10 8 7 8 9 9 9 8 8 8 9 10 11 11 12 12 12 11 11 11 11 11 12 13 15 16 17 18 18 19 19 18 15 10 6 2 -0 -0 2 5 8 9 9 8 5 3 1 2 3
11 12 14 15 15 15 15 13 8 3 -1 -2 2 7 13 18 20 18 14 11 9 8 8 9 9 8 7 7 7 8 9 10 10 11 12 12 12 12 11 11 11 12 13 14 16 17 18 18 19 19 18 16 13 8 4 -0 -1 1 5 8 9 9 7 4 2 0 -1 -2 -3
7 8 10 12 13 13 12 9 5 1 -1 -1 4 10 15 20 19 16 12 9 8 8 9 9 8 7 7 6 7 7 8 9 10 10 11 11 12 12 12 11 12 12 13 15 16 17 17 18 18 18 17 15 11 7 3 0 1 3 7 9 9 7 5 4 3 2 1 -1 -2
4 4 5 7 8 8 7 5 2 -1 -1 1 7 13 17 19 17 14 11 9 9 9 9 8 7 6 6 6 6 7 8 8 9 9 10 10 11 11 12 12 12 13 14 15 16 17 17 17 17 17 17 15 11 7 4 2 3 4 6 7 6 6 6 7 8 7 7 6 5
5 4 3 3 3 3 3 1 -0 -1 -0 3 9 15 18 19 15 12 10 9 9 9 8 7 6 5 5 6 6 6 7 7 8 8 8 9 10 11 11 12 12 13 14 15 16 17 17 17 17 17 16 15 13 10 7 5 4 4 3 3 3 4 5 8 10 11 12 11 11
12 9 6 4 3 2 1 -0 -1 -0 2 6 12 17 19 17 14 11 9 9 9 8 7 5 5 5 5 5 5 5 6 6 6 7 7 8 9 10 11 11 12 13 13 14 15 16 17 17 17 17 16 15 13 11 9 7 4 2 1 -0 0 1 3 6 9 11 12 12 11
21 18 15 11 8 6 4 2 2 3 6 11 16 18 18 15 12 10 9 9 8 7 6 5 4 4 4 4 4 4 5 5 5 6 6 7 8 9 10 11 11 12 13 14 14 15 16 17 17 17 16 14 13 11 9 6 4 1 -0 -1 0 2 4 7 9 11 11 11 10
28 26 24 21 18 15 12 9 9 10 12 16 19 19 17 13 11 9 9 8 7 6 5 4 4 4 4 4 3 3 4 4 5 5 6 7 7 8 8 9 11 12 13 13 13 14 14 15 17 17 17 15 13 11 8 6 4 2 2 2 3 5 7 10 12 12 12 11 10
29 29 29 28 26 23 21 18 17 17 18 21 21 18 15 11 10 9 8 7 6 5 4 3 3 3 3 3 3 3 3 3 4 5 5 6 7 7 8 8 9 11 12 13 13 13 13 14 15 16 16 16 15 13 11 9 7 6 6 7 8 10 11 12 13 14 14 13 13
27 28 29 29 29 28 26 24 23 23 23 22 20 16 12 10 9 8 7 6 5 4 3 3 3 3 3 3 3 3 3 3 3 4 5 5 6 7 7 8 9 10 11 12 12 13 13 13 13 14 14 15 15 15 14 13 12 12 12 12 13 13 13 13 14 15 16 16 16
24 25 26 27 28 28 27 27 26 25 23 20 16 13 10 9 8 7 6 5 4 3 3 3 3 3 3 3 3 3 3 3 3 3 4 5 5 6 7 7 8 9 9 11 11 12 13 13 13 13 13 13 14 14 14 15 15 15 15 15 14 14 13 14 16 17 18 18 19
22 23 24 25 26 27 27 27 25 23 20 15 12 9 8 7 7 6 5 4 3 3 2 3 3 3 3 3 3 3 3 3 3 3 3 4 4 5 6 7 8 8 9 10 11 11 12 13 14 14 13 13 13 13 13 14 15 16 16 15 15 14 14 15 17 18 19 19 19
22 23 23 24 25 26 25 24 21 18 14 11 9 8 7 7 6 5 4 3 2 2 2 2 2 2 2 2 3 3 2 2 2 2 2 3 3 4 5 6 7 8 9 9 10 11 12 13 14 14 14 14 14 13 13 14 15 16 16 16 15 15 15 15 16 17 17 17 17
23 23 23 24 24 23 22 20 16 13 10 8 7 7 6 6 5 4 3 2 2 2 2 2 2 2 3 3 3 3 2 2 2 2 2 2 3 3 4 5 7 7 8 9 9 10 11 13 14 15 16 16 15 15 15 15 16 17 17 16 16 16 16 16 15 15 14 14 13
23 23 22 22 21 19 17 14 12 9 8 7 7 6 6 5 4 3 3 2 2 2 2 2 2 3 3 3 3 3 3 3 2 2 2 1 2 2 3 4 5 7 8 9 9 10 11 12 13 15 16 17 17 17 17 17 18 17 17 17 16 16 16 15 14 13 11 11 10
22 21 20 18 16 14 12 10 9 8 7 6 6 6 5 5 4 3 3 2 2 2 2 2 3 3 3 3 3 3 3 3 3 2 2 2 2 2 2 3 4 6 7 8 9 9 10 11 12 14 15 17 18 19 19 19 18 17 17 16 15 15 14 13 11 10 9 8 7
20 18 16 14 12 11 9 8 7 7 6 6 6 5 5 4 3 3 3 2 2 2 3 3 4 4 4 4 4 4 4 4 4 3 3 2 2 2 2 3 3 5 6 7 8 9 10 10 11 13 15 16 18 19 20 19 17 16 15 14 13 12 11 9 8 7 6 5 4
18 16 13 11 10 8 7 7 6 6 6 5 5 5 4 4 3 3 3 3 3 3 3 4 4 4 4 4 4 5 5 5 5 4 4 3 3 2 2 3 3 4 5 6 8 9 10 10 11 13 14 16 18 19 20 19 16 15 13 13 11 9 8 7 7 6 5 3 3
16 14 11 9 8 7 6 6 6 5 5 5 4 4 4 3 3 3 3 3 3 4 4 4 4 4 5 5 5 5 5 5 6 5 5 5 4 3 3 3 4 4 5 6 7 8 10 11 12 13 14 15 17 19 19 18 15 13 11 10 8 7 6 6 6 5 4 2 2
14 13 10 8 6 5 5 5 5 4 4 4 3 3 3 3 3 3 3 3 4 4 4 4 5 5 5 5 5 5 6 6 6 7 7 6 6 5 5 4 4 4 5 5 6 8 9 11 12 13 14 15 16 18 19 18 14 11 9 7 6 5 6 6 6 5 3 1 1
12 12 10 8 5 4 3 3 3 4 3 3 3 3 3 3 3 3 3 3 4 4 4 4 5 5 5 5 5 6 6 6 7 7 8 7 7 6 6 6 5 5 5 5 6 7 9 11 12 13 14 15 16 17 18 18 13 9 6 5 5 5 6 6 5 4 2 1 2
11 11 10 9 6 4 3 3 3 3 3 3 3 3 3 3 4 4 4 4 4 4 4 4 4 5 5 5 5 6 6 7 7 8 8 8 8 7 7 7 7 6 6 5 6 6 7 9 11 13 14 14 15 17 17 17 13 8 5 3 4 5 5 5 4 2 1 1 4
10 10 10 9 7 6 4 3 3 3 3 4 4 4 4 4 4 5 5 5 5 5 4 4 5 5 5 5 5 5 6 7 8 8 9 9 9 8 7 7 8 7 7 7 6 6 6 8 10 12 14 15 15 16 16 16 14 10 6 3 3 4 5 4 3 2 1 2 6
9 9 9 9 8 6 5 4 3 3 3 4 4 5 5 5 5 5 5 5 5 5 5 4 5 5 5 5 5 6 7 7 8 9 9 9 9 9 8 7 8 8 8 8 7 6 6 6 8 11 13 15 15 15 15 15 14 11 8 4 3 3 4 3 2 2 3 4 8
9 9 9 8 7 7 6 5 4 3 3 3 4 4 5 5 5 5 5 5 5 5 5 5 5 5 5 6 6 7 7 8 9 10 10 10 10 9 9 8 8 8 9 9 8 7 6 6 7 9 12 14 15 15 15 15 15 13 10 5 3 3 3 3 3 3 4 6 10
9 9 9 8 8 7 6 5 5 4 4 4 4 4 4 4 5 5 5 5 6 6 6 6 6 6 7 8 8 9 9 9 10 10 10 10 10 10 9 8 8 8 9 9 9 8 7 6 7 8 10 13 14 15 16 16 16 14 11 6 4 3 3 3 3 4 5 7 10
Height
5706 5705 5704 5702 5701 5699 5697 5696 5694 5693 5691 5690 5688 5686 5685 5684 5682 5681 5679 5678 5676 5675 5673 5672 5670 5669 5667 5666 5664 5662 5660 5658 5656 5654 5652 5650 5647 5645 5643 5641 5639 5636 5634 5631 5629 5627 5624 5622 5620 5617 5614 5612 5610 5607 5605 5603 5601 5600 5597 5596 5595 5594 5593 5592 5591 5590 5588 5586 5585
5702 5701 5700 5698 5696 5695 5693 5692 5690 5689 5687 5686 5684 5682 5681 5679 5678 5677 5675 5674 5672 5671 5669 5667 5666 5664 5663 5661 5660 5658 5656 5654 5651 5649 5647 5645 5643 5640 5638 5636 5634 5632 5630 5627 5624 5621 5619 5616 5614 5611 5609 5606 5604 5602 5600 5598 5596 5595 5592 5591 5590 5589 5588 5587 5586 5584 5582 5581 5580
5698 5697 5695 5694 5692 5691 5689 5688 5686 5685 5683 5681 5680 5678 5677 5675 5674 5672 5671 5670 5668 5666 5665 5663 5661 5660 5658 5656 5655 5653 5651 5649 5647 5645 5642 5640 5638 5636 5633 5631 5629 5627 5625 5622 5619 5616 5614 5611 5609 5606 5603 5601 5599 5596 5595 5593 5591 5590 5587 5586 5584 5583 5582 5581 5580 5579 5577 5576 5575
5694 5692 5691 5689 5688 5686 5685 5683 5682 5680 5678 5677 5676 5674 5673 5671 5670 5668 5667 5666 5664 5662 5661 5659 5657 5655 5653 5652 5650 5648 5646 5644 5642 5640 5638 5636 5633 5631 5628 5626 5624 5622 5620 5618 5615 5611 5609 5606 5603 5600 5598 5595 5593 5591 5590 5588 5586 5584 5582 5581 5579 5578 5577 5576 5575 5573 5572 5571 5570
5690 5688 5686 5685 5683 5682 5680 5679 5677 5676 5674 5673 5671 5670 5669 5667 5666 5664 5663 5661 5660 5658 5656 5654 5652 5651 5649 5647 5645 5643 5641 5640 5638 5636 5633 5631 5629 5626 5624 5621 5620 5618 5615 5613 5610 5607 5604 5601 5597 5595 5592 5590 5588 5586 5585 5583 5581 5579 5577 5576 5574 5573 5572 5571 5570 5568 5567 5566 5565
5685 5683 5682 5680 5679 5677 5676 5674 5673 5671 5670 5668 5667 5666 5665 5663 5661 5660 5659 5657 5656 5654 5652 5650 5648 5646 5644 5642 5640 5638 5637 5635 5633 5631 5629 5627 5624 5622 5620 5617 5615 5613 5611 5608 5605 5602 5599 5596 5592 5589 5587 5585 5582 5581 5579 5578 5576 5574 5572 5571 5569 5568 5567 5566 5565 5563 5562 5561 5561
5681 5679 5677 5676 5674 5673 5671 5670 5668 5667 5665 5664 5663 5662 5660 5659 5657 5656 5655 5653 5651 5649 5647 5645 5643 5641 5639 5637 5636 5634 5632 5631 5629 5627 5625 5623 5620 5618 5616 5613 5611 5608 5606 5603 5600 5597 5594 5591 5587 5584 5581 5579 5577 5576 5574 5572 5571 5569 5568 5566 5565 5564 5562 5561 5560 5559 5558 5557 5556
5676 5675 5673 5671 5670 5668 5667 5666 5664 5662 5661 5660 5659 5657 5656 5654 5653 5652 5650 5649 5647 5645 5643 5641 5639 5637 5635 5633 5631 5630 5628 5626 5625 5623 5621 5619 5616 5614 5611 5609 5606 5604 5601 5599 5596 5592 5589 5586 5583 5580 5577 5574 5572 5570 5568 5566 5565 5564 5563 5562 5560 5559 5558 5556 5555 5555 5554 5553 5552
5672 5670 5668 5667 5665 5664 5663 5661 5660 5658 5657 5656 5654 5653 5651 5650 5649 5647 5646 5644 5642 5641 5639 5636 5634 5632 5631 5629 5627 5626 5624 5622 5621 5619 5616 5615 5612 5610 5607 5605 5602 5600 5597 5594 5591 5588 5585 5581 5578 5575 5572 5570 5567 5564 5562 5561 5561 5560 5559 5557 5556 5554 5553 5552 5551 5551 5550 5549 5548
5667 5666 5664 5662 5661 5660 5658 5657 5656 5654 5653 5651 5650 5649 5647 5646 5644 5643 5641 5639 5638 5636 5634 5632 5630 5628 5627 5625 5624 5622 5620 5618 5616 5615 5612 5610 5608 5606 5603 5601 5598 5595 5592 5589 5586 5583 5580 5577 5574 5571 5568 5565 5562 5560 5558 5557 5556 5556 5555 5553 5552 5551 5550 5549 5548 5546 5545 5544 5543
5663 5661 5660 5658 5657 5655 5654 5652 5651 5650 5649 5647 5646 5645 5643 5641 5640 5638 5636 5635 5633 5631 5630 5628 5626 5624 5623 5621 5620 5618 5616 5614 5612 5610 5608 5606 5604 5601 5599 5596 5594 5591 5588 5585 5582 5579 5576 5573 5570 5567 5564 5561 5558 5556 5554 5553 5552 5551 5551 5550 5548 5547 5546 5545 5544 5542 5541 5540 5539
5658 5656 5655 5654 5652 5651 5649 5648 5647 5646 5644 5643 5642 5640 5639 5637 5635 5633 5631 5630 5628 5627 5625 5624 5622 5621 5619 5618 5616 5614 5612 5610 5608 5606 5604 5602 5600 5597 5595 5592 5589 5586 5583 5580 5577 5575 5572 5569 5566 5563 5560 5557 5555 5553 5551 5550 5549 5548 5547 5546 5545 5544 5543 5541 5540 5539 5537 5536 5535
5653 5652 5650 5649 5647 5646 5645 5643 5642 5641 5640 5639 5637 5636 5634 5632 5631 5628 5627 5625 5624 5623 5621 5620 5618 5617 5615 5614 5612 5610 5607 5605 5603 5601 5600 5597 5595 5593 5590 5588 5585 5582 5579 5576 5573 5570 5568 5565 5562 5559 5556 5554 5551 5550 5548 5547 5546 5545 5544 5543 5541 5541 5539 5538 5536 5535 5533 5532 5531
5648 5647 5646 5644 5643 5641 5640 5639 5638 5637 5636 5635 5633 5631 5630 5628 5626 5624 5622 5621 5620 5618 5617 5616 5614 5613 5611 5610 5608 5606 5603 5601 5599 5597 5595 5593 5591 5589 5586 5583 5581 5577 5575 5571 5569 5566 5564 5561 5558 5556 5553 5551 5549 5547 5545 5544 5542 5541 5540 5539 5538 5536 5535 5534 5532 5531 5530 5528 5527
5644 5642 5641 5639 5638 5636 5635 5634 5633 5632 5631 5630 5628 5627 5625 5623 5621 5620 5618 5617 5616 5614 5613 5612 5611 5609 5607 5606 5604 5601 5600 5597 5596 5593 5591 5589 5586 5584 5581 5579 5576 5573 5570 5567 5565 5562 5560 5557 5555 5552 5550 5547 5546 5544 5542 5541 5539 5538 5536 5535 5534 5532 5531 5530 5528 5527 5526 5525 5524
5639 5637 5636 5635 5633 5632 5631 5630 5629 5628 5627 5626 5624 5622 5620 5618 5617 5615 5614 5613 5611 5611 5609 5608 5607 5605 5603 5601 5600 5598 5596 5594 5591 5590 5587 5585 5582 5580 5577 5574 5571 5569 5566 5563 5561 5558 5556 5553 5551 5549 5546 5544 5542 5541 5539 5537 5536 5534 5533 5531 5530 5528 5527 5526 5524 5523 5522 5521 5520
5634 5633 5631 5630 5628 5627 5626 5625 5624 5623 5622 5621 5619 5618 5616 5614 5613 5611 5610 5609 5608 5606 5606 5604 5603 5601 5599 5597 5596 5594 5592 5590 5588 5586 5583 5581 5578 5576 5573 5570 5567 5565 5562 5559 5556 5554 5552 5550 5547 5545 5543 5541 5539 5537 5535 5534 5532 5531 5529 5527 5526 5524 5522 5521 5520 5519 5518 5517 5516
5629 5628 5626 5625 5624 5622 5621 5621 5620 5619 5617 5616 5615 5613 5611 5610 5608 5607 5606 5605 5604 5603 5601 5600 5599 5597 5595 5593 5591 5590 5588 5586 5584 5581 5579 5577 5574 5571 5569 5566 5563 5561 5558 5555 5553 5550 5548 5546 5543 5541 5539 5537 5535 5533 5531 5530 5528 5527 5525 5524 5522 5520 5518 5517 5516 5515 5513 5512 5511
5624 5622 5621 5620 5619 5618 5617 5616 5615 5614 5613 5611 5610 5609 5607 5606 5604 5603 5602 5601 5600 5599 5597 5596 5595 5593 5591 5589 5587 5586 5584 5582 5580 5578 5575 5573 5570 5567 5565 5562 5559 5556 5554 5551 5549 5546 5544 5542 5540 5537 5535 5533 5531 5529 5528 5526 5525 5523 5522 5520 5518 5516 5515 5513 5512 5511 5509 5507 5506
5618 5617 5616 5615 5614 5613 5612 5611 5610 5609 5608 5607 5606 5604 5603 5601 5600 5599 5598 5597 5596 5595 5593 5592 5591 5589 5587 5586 5584 5582 5580 5578 5576 5574 5571 5569 5566 5564 5561 5558 5555 5553 5550 5548 5545 5543 5541 5538 5536 5534 5532 5530 5528 5526 5524 5523 5521 5520 5518 5517 5515 5513 5511 5510 5508 5506 5505 5503 5501
5613 5611 5610 5610 5609 5608 5607 5606 5605 5604 5603 5602 5601 5600 5598 5597 5596 5595 5594 5593 5592 5591 5589 5588 5586 5585 5583 5582 5580 5578 5576 5574 5572 5570 5567 5565 5562 5560 5557 5554 5551 5549 5546 5544 5541 5539 5537 5535 5532 5530 5528 5526 5524 5523 5521 5519 5518 5516 5515 5514 5512 5510 5508 5506 5504 5502 5501 5499 5497
5607 5606 5605 5604 5603 5602 5602 5601 5600 5600 5599 5597 5596 5595 5594 5593 5592 5591 5590 5589 5588 5586 5585 5584 5582 5581 5579 5578 5576 5574 5572 5570 5568 5566 5563 5561 5558 5556 5553 5551 5548 5545 5543 5540 5538 5535 5533 5531 5528 5526 5525 5522 5521 5519 5518 5516 5514 5513 5511 5510 5508 5506 5504 5502 5500 5498 5496 5494 5492
5602 5601 5600 5599 5598 5597 5596 5596 5595 5595 5594 5593 5592 5591 5590 5589 5588 5587 5586 5585 5584 5582 5581 5580 5578 5577 5575 5574 5572 5570 5568 5566 5564 5561 5559 5557 5554 5551 5549 5546 5544 5541 5539 5536 5534 5531 5529 5527 5525 5523 5521 5519 5517 5516 5514 5512 5511 5509 5507 5506 5504 5502 5500 5498 5496 5494 5492 5490 5488
5597 5596 5595 5593 5593 5592 5591 5591 5591 5590 5589 5588 5587 5587 5586 5585 5584 5583 5582 5581 5580 5578 5577 5576 5574 5572 5571 5569 5568 5566 5564 5562 5560 5557 5555 5553 5551 5548 5545 5543 5540 5538 5535 5533 5530 5528 5525 5523 5521 5519 5517 5515 5513 5511 5510 5508 5506 5505 5503 5502 5500 5498 5496 5494 5491 5490 5487 5485 5483
5592 5591 5590 5589 5588 5587 5587 5586 5586 5585 5585 5584 5583 5582 5582 5581 5580 5579 5578 5577 5576 5574 5573 5571 5570 5568 5567 5565 5563 5562 5560 5558 5556 5554 5551 5549 5547 5544 5542 5539 5536 5534 5531 5529 5526 5524 5521 5519 5517 5515 5513 5511 5509 5507 5506 5504 5502 5501 5499 5497 5496 5494 5491 5490 5487 5485 5483 5481 5479
5588 5587 5586 5585 5584 5583 5582 5582 5581 5581 5580 5580 5579 5578 5577 5577 5576 5575 5574 5573 5571 5570 5569 5567 5566 5564 5563 5561 5559 5558 5556 5554 5552 5550 5547 5545 5543 5541 5538 5536 5533 5531 5528 5525 5523 5521 5518 5516 5513 5511 5509 5507 5505 5503 5501 5500 5498 5496 5495 5493 5491 5490 5488 5486 5484 5481 5479 5477 5475
5585 5583 5582 5581 5580 5579 5579 5578 5577 5577 5576 5576 5575 5574 5573 5572 5571 5571 5570 5569 5567 5566 5565 5563 5562 5560 5559 5557 5556 5554 5552 5550 5548 5546 5544 5541 5539 5537 5535 5532 5530 5527 5524 5522 5519 5517 5514 5512 5510 5507 5505 5503 5501 5499 5497 5496 5494 5492 5491 5489 5487 5486 5484 5482 5480 5478 5476 5474 5471
5581 5580 5579 5578 5577 5576 5575 5575 5574 5574 5573 5572 5571 5570 5569 5568 5567 5566 5566 5564 5563 5562 5561 5559 5558 5556 5555 5553 5551 5550 5548 5546 5544 5542 5540 5538 5536 5533 5531 5528 5526 5523 5521 5518 5516 5513 5511 5508 5506 5504 5501 5499 5497 5495 5493 5491 5490 5489 5487 5485 5484 5482 5480 5478 5476 5475 5472 5470 5468
5579 5577 5576 5575 5574 5573 5572 5572 5571 5571 5570 5569 5568 5567 5566 5565 5564 5563 5561 5561 5559 5558 5557 5556 5554 5552 5551 5549 5547 5546 5544 5542 5540 5538 5536 5534 5532 5530 5527 5525 5522 5520 5517 5515 5512 5510 5507 5505 5502 5500 5498 5496 5494 5491 5490 5488 5486 5485 5483 5481 5480 5478 5476 5475 5473 5471 5469 5466 5464
5576 5575 5573 5572 5571 5571 5570 5569 5568 5567 5566 5566 5565 5563 5562 5561 5560 5559 5558 5556 5556 5554 5553 5551 5550 5548 5547 5545 5543 5541 5540 5538 5536 5534 5532 5530 5528 5526 5524 5521 5519 5516 5514 5511 5508 5506 5504 5501 5499 5496 5494 5492 5490 5488 5486 5485 5483 5481 5479 5478 5476 5474 5472 5471 5469 5467 5465 5463 5461
5574 5572 5571 5570 5569 5568 5567 5566 5565 5564 5563 5562 5561 5560 5559 5557 5556 5555 5554 5553 5551 5550 5549 5547 5546 5545 5543 5541 5539 5537 5536 5534 5532 5530 5528 5526 5524 5522 5520 5517 5515 5512 5510 5507 5505 5502 5500 5497 5495 5492 5490 5488 5486 5485 5483 5481 5479 5477 5476 5474 5472 5471 5469 5467 5465 5463 5461 5459 5457
5571 5570 5569 5568 5567 5566 5565 5563 5562 5561 5560 5559 5558 5556 5555 5554 5553 5551 5550 5549 5548 5546 5545 5543 5542 5540 5539 5537 5535 5533 5532 5530 5528 5526 5524 5522 5520 5518 5516 5514 5511 5509 5506 5504 5501 5498 5496 5493 5491 5489 5486 5485 5483 5481 5480 5478 5476 5474 5472 5470 5469 5467 5465 5463 5461 5460 5457 5455 5453
5569 5568 5566 5565 5564 5563 5562 5561 5559 5558 5557 5556 5554 5553 5551 5550 5549 5548 5546 5545 5544 5542 5541 5539 5538 5536 5534 5533 5531 5529 5527 5526 5524 5522 5520 5518 5516 5514 5512 5510 5507 5505 5502 5500 5497 5495 5492 5490 5487 5485 5483 5481 5479 5478 5477 5475 5473 5470 5468 5466 5465 5463 5461 5460 5458 5456 5454 5451 5449
5566 5565 5564 5563 5561 5560 5559 5557 5556 5555 5553 5552 5551 5549 5548 5546 5545 5544 5542 5541 5540 5538 5536 5535 5533 5531 5530 5528 5527 5525 5523 5521 5520 5518 5516 5514 5512 5510 5508 5506 5503 5501 5498 5496 5493 5491 5488 5486 5484 5481 5479 5477 5476 5474 5473 5472 5470 5467 5465 5463 5461 5460 5458 5456 5454 5452 5450 5448 5446
5563 5562 5561 5560 5558 5557 5556 5554 5552 5551 5550 5548 5547 5545 5544 5542 5541 5540 5538 5537 5535 5534 5532 5531 5529 5527 5526 5524 5522 5521 5519 5517 5515 5513 5511 5510 5507 5506 5503 5501 5499 5497 5495 5492 5490 5487 5485 5482 5480 5478 5476 5474 5472 5471 5470 5468 5466 5464 5461 5460 5458 5456 5454 5452 5450 5448 5446 5444 5442
5560 5559 5557 5556 5555 5553 5552 5550 5549 5547 5546 5544 5543 5541 5540 5538 5537 5536 5534 5532 5531 5529 5528 5526 5525 5523 5521 5520 5518 5516 5514 5512 5511 5509 5507 5505 5503 5501 5499 5497 5495 5493 5491 5488 5486 5483 5481 5479 5476 5474 5472 5470 5468 5467 5466 5464 5463 5461 5458 5456 5455 5453 5451 5449 5446 5445 5443 5441 5439
5556 5555 5554 5552 5551 5550 5548 5546 5545 5543 5541 5540 5538 5537 5535 5534 5532 5531 5530 5528 5526 5525 5523 5522 5520 5518 5516 5515 5513 5511 5510 5508 5506 5504 5502 5500 5499 5496 5495 5493 5491 5488 5486 5484 5482 5479 5477 5475 5473 5471 5468 5466 5464 5463 5461 5460 5459 5457 5455 5453 5451 5449 5447 5445 5443 5441 5439 5437 5435
5552 5551 5550 5548 5547 5546 5544 5542 5541 5539 5537 5536 5534 5532 5531 5529 5528 5526 5525 5523 5522 5520 5519 5517 5515 5514 5512 5511 5509 5507 5505 5503 5501 5499 5497 5496 5494 5492 5490 5488 5486 5484 5482 5480 5477 5475 5473 5471 5469 5467 5465 5462 5461 5459 5457 5456 5454 5453 5451 5450 5448 5446 5443 5441 5439 5437 5436 5434 5432
5548 5546 5545 5544 5542 5541 5540 5538 5536 5535 5533 5531 5530 5528 5526 5525 5523 5522 5520 5519 5517 5516 5514 5512 5511 5509 5507 5506 5504 5502 5501 5499 5496 5495 5493 5491 5489 5487 5486 5484 5481 5480 5477 5475 5473 5471 5469 5467 5465 5463 5461 5459 5456 5455 5453 5451 5450 5448 5447 5446 5444 5442 5440 5437 5436 5434 5432 5430 5428
5543 5542 5541 5539 5538 5536 5535 5533 5531 5530 5528 5526 5525 5523 5522 5520 5518 5517 5516 5514 5512 5511 5510 5508 5506 5504 5502 5501 5499 5498 5496 5494 5492 5490 5488 5486 5484 5482 5481 5479 5477 5475 5473 5471 5469 5467 5465 5463 5461 5459 5456 5455 5452 5451 5449 5447 5445 5444 5443 5442 5440 5438 5436 5434 5432 5430 5428 5426 5425
5539 5537 5536 5534 5533 5531 5530 5528 5527 5525 5523 5521 5520 5518 5517 5516 5514 5512 5511 5509 5507 5506 5505 5503 5501 5499 5498 5496 5494 5493 5491 5489 5487 5486 5483 5481 5479 5477 5476 5474 5472 5471 5468 5466 5465 5462 5461 5459 5456 5455 5452 5450 5448 5446 5445 5443 5441 5440 5438 5437 5436 5434 5432 5430 5428 5427 5425 5423 5421